Regional Weather Roundup
Issued by NWS

Home | Current Version | Previous Version | Text Only | Print | Product List | Glossary Off
Versions: 1 2 3 4 5 6 7 8 9 10 11 12 13 14 15 16 17 18 19 20 21 22 23 24 25 26 27 28 29 30 31 32 33 34 35 36 37 38 39 40 41 42 43 44 45 46 47 48 49 50

000
ASUS45 KABQ 041401
RWRNM
WEATHER ROUNDUP FOR NEW MEXICO
NATIONAL WEATHER SERVICE ALBUQUERQUE NM
800 AM MDT MON MAY 04 2015

NOTE: "FAIR" MEANS FEW OR NO CLOUDS BELOW 12,000 FEET AGL WITH NO
       SIGNIFICANT WEATHER OR OBSTRUCTIONS TO VISION.

      THIS PRODUCT IS RELEASED AS TWO VERSIONS.  ONE VERSION NEAR
      THE TOP OF THE HOUR CONTAINING PRELIMINARY DATA FROM ALBUQUERQUE
      AND OTHER STATIONS.  A FINAL VERSION WITH ADDITIONAL DATA IS
      ISSUED ABOUT 10 MINUTES AFTER THE HOUR.

NMZ501-503-504-510>518-041500-
NORTHWEST PLATEAU/NORTHCENTRAL MOUNTAINS

CITY           SKY/WX    TMP DP  RH WIND       PRES   REMARKS
FARMINGTON     SUNNY     54  39  57 E8        30.04R
SANTA FE       CLOUDY    54  39  57 NE3       30.11R
TAOS           MOSUNNY   46  34  61 CALM      30.16R
ANGEL FIRE     FOG       36  35  98 CALM      30.22S VSB 1/4

$$
NMZ402-403-502-505>509-041500-
WESTCENTRAL MOUNTAINS/SOUTHWEST MOUNTAINS

CITY           SKY/WX    TMP DP  RH WIND       PRES   REMARKS
GALLUP         PTSUNNY   52  40  63 NE6       30.07R
GRANTS         PTSUNNY   45  37  72 SE3       30.12R
SILVER CITY      N/A     59  41  51 W13G18    30.05R

$$
NMZ407-409-411-412-041500-
SOUTHERN DESERTS

CITY           SKY/WX    TMP DP  RH WIND       PRES   REMARKS
DEMING         CLOUDY    63  44  50 W13       29.99R
ALAMOGORDO     MOSUNNY   63  50  63 SE7       29.98R
T OR C         MOSUNNY   63  39  41 N7        30.00R

$$
NMZ519>523-041500-
CENTRAL VALLEYS/CENTRAL HIGHLANDS

CITY           SKY/WX    TMP DP  RH WIND       PRES   REMARKS
ALBUQUERQUE    PTSUNNY   59  40  49 VRB6      30.05S
DOUBLE EAGLE   MOSUNNY   54  41  62 CALM      30.08R
MORIARTY ARPT  FAIR      52  39  60 N3        30.12F
CLINES CORNERS CLOUDY    52  42  69 N6        30.12F
BELEN          FAIR      60  41  49 NW8       30.05R
SOCORRO        NOT AVBL

$$
NMZ524>526-539-540-041500-
SOUTHCENTRAL MOUNTAINS

CITY           SKY/WX    TMP DP  RH WIND       PRES   REMARKS
RUIDOSO        NOT AVBL

$$
NMZ527>531-041500-
NORTHEAST HIGHLANDS/NORTHEAST PLAINS

CITY           SKY/WX    TMP DP  RH WIND       PRES   REMARKS
LAS VEGAS      MOSUNNY   51  38  60 N5        30.15R
RATON          MOSUNNY   51  42  71 NE7       30.12R
CLAYTON        MOSUNNY   61  47  59 NW14      30.05R

$$
NMZ532>537-041500-
EASTCENTRAL PLAINS

CITY           SKY/WX    TMP DP  RH WIND       PRES   REMARKS
TUCUMCARI        N/A    N/A N/A N/A MISG      30.02R
CANNON AFB     NOT AVBL
CLOVIS AIRPORT MOSUNNY   61  52  72 SE9       30.04S

$$
NMZ028-029-538-041500-
SOUTHEAST PLAINS

CITY           SKY/WX    TMP DP  RH WIND       PRES   REMARKS
ROSWELL        LGT RAIN  60  51  72 W8        30.02R
ARTESIA        CLOUDY    61  54  77 N5G12     29.99F
CARLSBAD       CLOUDY    63  54  72 N8        29.94S
HOBBS          SUNNY     59  59 100 E7        30.03R


$$



USA.gov is the U.S. government's official web portal to all federal, state and local government web resources and services.